Weather History for Winston-Salem, NC

Change the Weather History Date:

Friday, January 4, 2013

  Actual Average Record
Temperature  
Mean Temperature 38 °F -  
Max Temperature 48 °F 49 °F 73 °F (2005)
Min Temperature 28 °F 32 °F 9 °F (1979)
Degree Days  
Heating Degree Days 27    
Moisture  
Dew Point 19 °F    
Average Humidity 51    
Maximum Humidity 72    
Minimum Humidity 29    
Precipitation  
Precipitation 0.00 in - - ()
Sea Level Pressure  
Sea Level Pressure 30.29 in    
Wind  
Wind Speed 5 mph (NW)    
Max Wind Speed 9 mph    
Max Gust Speed -    
Visibility 10 miles    
Events      
Averages and records for this station are not official NWS values.
T = Trace of Precipitation, MM = Missing Value Source: NWS Daily Summary

Daily Weather History Graph

Daily Weather History Graph

Search for Another Location

Airport:

Trip Planner

Search our weather history database for the weather conditions in past years. The results will help you decide how hot, cold, wet, or windy it might be!

Date:

Astronomy

Jan. 04, 2013 Rise Set
Actual Time 7:32 AM EST 5:19 PM EST
Civil Twilight 7:03 AM EST 5:48 PM EST
Nautical Twilight 6:31 AM EST 6:20 PM EST
Astronomical Twilight 6:00 AM EST 6:51 PM EST
Moon No Moon Rise 11:28 AM EST (1/4)
Length of Visible Light 10h 44m
Length of Day
9h 47m
Waning Gibbous, 55% of the Moon is Illuminated
Jan 4
Waning Gibbous
Jan 4
Last Quarter
Jan 11
New
Jan 18
First Quarter
Jan 26
Full

Hourly Weather History & Observations

Time (EST) Temp. Windchill Dew Point Humidity Pressure Visibility Wind Dir Wind Speed Gust Speed Precip Events Conditions
12:54 AM 34.0 °F 28.8 °F 19.9 °F 56% 30.27 in 10.0 mi NW 5.8 mph - N/A   Clear
1:54 AM 30.9 °F 27.5 °F 21.0 °F 67% 30.29 in 10.0 mi West 3.5 mph - N/A   Clear
2:54 AM 30.0 °F - 21.0 °F 69% 30.30 in 10.0 mi Calm Calm - N/A   Clear
3:54 AM 28.9 °F - 21.0 °F 72% 30.28 in 10.0 mi Calm Calm - N/A   Clear
4:54 AM 32.0 °F 28.7 °F 21.0 °F 64% 30.28 in 10.0 mi WNW 3.5 mph - N/A   Clear
5:54 AM 30.0 °F - 21.0 °F 69% 30.29 in 10.0 mi Calm Calm - N/A   Clear
6:54 AM 28.9 °F 22.8 °F 19.9 °F 69% 30.30 in 10.0 mi NNW 5.8 mph - N/A   Clear
7:54 AM 30.0 °F 26.5 °F 19.0 °F 64% 30.31 in 10.0 mi NNW 3.5 mph - N/A   Clear
8:54 AM 34.0 °F 26.6 °F 19.9 °F 56% 30.32 in 10.0 mi NW 9.2 mph - N/A   Clear
9:54 AM 37.0 °F 32.4 °F 21.0 °F 52% 30.34 in 10.0 mi Variable 5.8 mph - N/A   Clear
10:54 AM 39.9 °F 33.9 °F 21.0 °F 47% 30.33 in 10.0 mi NW 9.2 mph - N/A   Clear
11:54 AM 43.0 °F 40.3 °F 21.9 °F 43% 30.29 in 10.0 mi Variable 4.6 mph - N/A   Clear
12:54 PM 45.0 °F 41.2 °F 19.0 °F 36% 30.26 in 10.0 mi WNW 6.9 mph - N/A   Clear
1:54 PM 46.9 °F - 17.1 °F 30% 30.23 in 10.0 mi West 8.1 mph - N/A   Clear
2:54 PM 46.9 °F - 17.1 °F 30% 30.22 in 10.0 mi West 8.1 mph - N/A   Clear
3:54 PM 48.0 °F - 17.1 °F 29% 30.23 in 10.0 mi West 8.1 mph - N/A   Overcast
4:54 PM 46.9 °F - 18.0 °F 32% 30.23 in 10.0 mi WNW 3.5 mph - N/A   Overcast
5:54 PM 43.0 °F 38.2 °F 17.1 °F 35% 30.26 in 10.0 mi NW 8.1 mph - N/A   Mostly Cloudy
6:54 PM 39.9 °F 34.5 °F 17.1 °F 40% 30.30 in 10.0 mi NW 8.1 mph - N/A   Clear
7:54 PM 37.0 °F 31.0 °F 19.0 °F 48% 30.32 in 10.0 mi NNW 8.1 mph - N/A   Clear
8:54 PM 37.0 °F 30.4 °F 19.0 °F 48% 30.33 in 10.0 mi NNW 9.2 mph - N/A   Clear
9:54 PM 35.1 °F 30.1 °F 19.0 °F 52% 30.33 in 10.0 mi NNW 5.8 mph - N/A   Clear
10:54 PM 34.0 °F 31.0 °F 19.0 °F 54% 30.32 in 10.0 mi Variable 3.5 mph - N/A   Clear
11:54 PM 35.1 °F 31.0 °F 19.0 °F 52% 30.30 in 10.0 mi WNW 4.6 mph - N/A   Clear